Milan, Italy

10:35 AM CET on February 27, 2017 (GMT +0100)
Milan Malpensa Airport

Weather History for LIMC - October, 2013

Change the Weather History Date:

Thursday, October 10, 2013

  Actual Average Record
Temperature  
Mean Temperature 52 °F -  
Max Temperature 60 °F 61 °F 75 °F (2001)
Min Temperature 44 °F 40 °F 39 °F (2011)
Degree Days  
Heating Degree Days 13    
Growing Degree Days 2 (Base 50)    
Moisture  
Dew Point 53 °F    
Average Humidity 91    
Maximum Humidity 100    
Minimum Humidity 58    
Precipitation  
Precipitation 0.00 in 0.14 in - ()
Sea Level Pressure  
Sea Level Pressure 29.77 in    
Wind  
Wind Speed 6 mph ()    
Max Wind Speed 30 mph    
Max Gust Speed 44 mph    
Visibility 2.3 miles    
Events Fog , Rain , Thunderstorm    
Averages and records for this station are not official NWS values.
T = Trace of Precipitation, MM = Missing Value Source: Averaged Metar Reports

Daily Weather History Graph

Daily Weather History Graph

Search for Another Location

Airport or City:

Trip Planner

Search our weather history database for the weather conditions in past years. The results will help you decide how hot, cold, wet, or windy it might be!

Date:

Astronomy

Oct. 10, 2013 Rise Set
Actual Time 7:34 AM CEST 6:48 PM CEST
Civil Twilight 7:05 AM CEST 7:18 PM CEST
Nautical Twilight 6:30 AM CEST 7:52 PM CEST
Astronomical Twilight 5:56 AM CEST 8:26 PM CEST
Moon 1:23 PM CEST (10/10) 10:57 PM CEST (10/10)
Length of Visible Light 12h 13m
Length of Day
11h 13m
Waxing Crescent, 33% of the Moon is Illuminated
Oct 10
Waxing Crescent
Oct 12
First Quarter
Oct 19
Full
Oct 27
Last Quarter
Nov 3
New

Hourly Weather History & Observations

Time (CEST) Temp. Windchill Dew Point Humidity Pressure Visibility Wind Dir Wind Speed Gust Speed Precip Events Conditions
12:20 AM 55.4 °F - 53.6 °F 94% 30.01 in 3.1 mi Variable 1.2 mph - N/A   Mostly Cloudy
12:50 AM 55.4 °F - 53.6 °F 94% 29.98 in 3.1 mi SE 3.5 mph - N/A   Mostly Cloudy
1:20 AM 55.4 °F - 53.6 °F 94% 29.98 in 3.1 mi Calm Calm - N/A   Mostly Cloudy
1:50 AM 55.4 °F - 53.6 °F 94% 29.98 in 3.1 mi Variable 1.2 mph - N/A   Mostly Cloudy
2:20 AM 53.6 °F - 53.6 °F 100% 29.98 in 2.8 mi Calm Calm - N/A   Mostly Cloudy
2:50 AM 55.4 °F - 53.6 °F 94% 29.95 in 2.8 mi Variable 1.2 mph - N/A   Mostly Cloudy
3:20 AM 57.2 °F - 55.4 °F 94% 29.95 in 2.8 mi Variable 2.3 mph - N/A   Mostly Cloudy
3:50 AM 55.4 °F - 55.4 °F 100% 29.92 in 2.8 mi Variable 2.3 mph - N/A   Mostly Cloudy
4:20 AM 57.2 °F - 55.4 °F 94% 29.92 in 2.8 mi Variable 2.3 mph - N/A   Overcast
4:50 AM 57.2 °F - 55.4 °F 94% 29.92 in 2.8 mi ESE 4.6 mph - N/A   Light Drizzle
5:20 AM 57.2 °F - 55.4 °F 94% 29.89 in 2.5 mi ESE 4.6 mph - N/A   Overcast
5:50 AM 57.2 °F - 55.4 °F 94% 29.89 in 2.5 mi East 2.3 mph - N/A   Overcast
6:20 AM 57.2 °F - 55.4 °F 94% 29.89 in 0.9 mi SE 4.6 mph - N/A   Overcast
6:50 AM 57.2 °F - 55.4 °F 94% 29.86 in 0.9 mi Variable 1.2 mph - N/A   Overcast
7:20 AM 57.2 °F - 55.4 °F 94% 29.86 in 0.9 mi Variable 1.2 mph - N/A   Overcast
7:50 AM 57.2 °F - 55.4 °F 94% 29.86 in 0.7 mi Calm Calm - N/A   Overcast
8:20 AM 57.2 °F - 55.4 °F 94% 29.86 in 0.5 mi South 3.5 mph - N/A Fog Fog
8:50 AM 57.2 °F - 55.4 °F 94% 29.83 in 0.7 mi Variable 2.3 mph - N/A Rain Overcast
9:20 AM 57.2 °F - 55.4 °F 94% 29.83 in 0.7 mi SE 3.5 mph - N/A   Overcast
9:50 AM 57.2 °F - 57.2 °F 100% 29.83 in 0.9 mi South 3.5 mph - N/A   Overcast
10:20 AM 57.2 °F - 57.2 °F 100% 29.80 in 0.9 mi Variable 2.3 mph - N/A   Overcast
10:50 AM 57.2 °F - 57.2 °F 100% 29.80 in 0.9 mi SE 4.6 mph - N/A   Overcast
11:20 AM 59.0 °F - 57.2 °F 94% 29.80 in 1.2 mi SE 5.8 mph - N/A   Overcast
11:50 AM 59.0 °F - 57.2 °F 94% 29.77 in 1.6 mi SE 5.8 mph - N/A   Overcast
12:20 PM 59.0 °F - 57.2 °F 94% 29.77 in 1.6 mi SE 6.9 mph - N/A   Overcast
12:50 PM 59.0 °F - 57.2 °F 94% 29.77 in 1.6 mi ESE 6.9 mph - N/A   Overcast
1:20 PM 59.0 °F - 57.2 °F 94% 29.74 in 1.6 mi SE 6.9 mph - N/A   Overcast
1:50 PM 59.0 °F - 57.2 °F 94% 29.71 in 1.2 mi ESE 6.9 mph - N/A Rain Light Rain
2:20 PM 59.0 °F - 57.2 °F 94% 29.71 in 1.2 mi ESE 8.1 mph - N/A Rain Light Rain
2:50 PM 59.0 °F - 57.2 °F 94% 29.68 in 1.0 mi SE 6.9 mph - N/A Rain Light Rain
3:20 PM 59.0 °F - 57.2 °F 94% 29.68 in 1.0 mi SE 5.8 mph - N/A Rain Light Rain
3:50 PM 59.0 °F - 57.2 °F 94% 29.65 in 1.0 mi ESE 6.9 mph 18.4 mph N/A   Light Drizzle
4:20 PM 60.8 °F - 57.2 °F 88% 29.62 in 1.2 mi ESE 10.4 mph - N/A   Mostly Cloudy
4:50 PM 60.8 °F - 57.2 °F 88% 29.59 in 1.6 mi ESE 10.4 mph - N/A   Mostly Cloudy
5:20 PM 60.8 °F - 57.2 °F 88% 29.56 in 1.6 mi ESE 10.4 mph - N/A   Mostly Cloudy
5:50 PM 60.8 °F - 57.2 °F 88% 29.56 in 1.6 mi ESE 10.4 mph - N/A   Mostly Cloudy
6:20 PM 60.8 °F - 57.2 °F 88% 29.56 in 1.6 mi East 5.8 mph - N/A   Mostly Cloudy
6:50 PM 55.4 °F - 48.2 °F 77% 29.56 in 3.1 mi NNW 15.0 mph 28.8 mph N/A Rain Light Rain
7:20 PM 50.0 °F - 48.2 °F 94% 29.59 in 1.6 mi NNW 27.6 mph - N/A Rain , Thunderstorm Heavy Thunderstorms and Rain
7:50 PM 48.2 °F - 46.4 °F 93% 29.62 in 2.5 mi North 23.0 mph - N/A Rain , Thunderstorm Heavy Thunderstorms and Rain
8:20 PM 46.4 °F 38.3 °F 44.6 °F 93% 29.65 in 2.5 mi North 23.0 mph - N/A Rain , Thunderstorm Heavy Thunderstorms and Rain
8:50 PM 46.4 °F 37.5 °F 41.0 °F 81% 29.62 in 2.5 mi North 27.6 mph 43.7 mph N/A Rain Rain
9:20 PM 44.6 °F 34.7 °F 41.0 °F 87% 29.62 in 6.2 mi North 29.9 mph 41.4 mph N/A Rain Rain
9:50 PM 44.6 °F 35.7 °F 39.2 °F 81% 29.62 in 6.2 mi NNE 24.2 mph 40.3 mph N/A   Mostly Cloudy
10:20 PM 44.6 °F 35.9 °F 37.4 °F 76% 29.68 in 6.2 mi North 23.0 mph 34.5 mph N/A   Mostly Cloudy
10:50 PM 44.6 °F 35.7 °F 35.6 °F 71% 29.65 in 6.2 mi North 24.2 mph 38.0 mph N/A   Mostly Cloudy
11:20 PM 46.4 °F 39.2 °F 35.6 °F 66% 29.62 in 6.2 mi NNE 18.4 mph 31.1 mph N/A   Mostly Cloudy
11:50 PM 48.2 °F - 33.8 °F 58% 29.65 in 6.2 mi NNE 18.4 mph - N/A   Mostly Cloudy